Regional Weather Roundup
Issued by NWS Glasgow, MT

Home | Current Version | Previous Version | Text Only | Print | Product List | Glossary On
Versions: 1 2 3 4 5 6 7 8 9 10 11 12 13 14 15 16 17 18 19 20 21 22 23 24 25 26 27 28 29 30 31 32 33 34 35 36 37 38 39 40 41 42 43 44 45 46 47 48 49 50
000
ASUS45 KGGW 271715
RWRGGW
HOURLY REGIONAL WEATHER ROUNDUP FOR NORTHEAST MONTANA
NATIONAL WEATHER SERVICE GLASGOW MONTANA
1100 AM MDT WED JUL 27 2016

NOTE: "FAIR" INDICATES FEW OR NO CLOUDS BELOW 12,000 FEET WITH NO
SIGNIFICANT WEATHER AND/OR OBSTRUCTIONS TO VISISBILITY.

NORTHEAST MONTANA


CITY           SKY/WX    TMP DP  RH WIND       PRES   REMARKS
GLASGOW        PTSUNNY   68  61  78 VRB7      30.14R
PLENTYWOOD       N/A     67  56  67 S2          N/A
WOLF POINT     CLOUDY    68  63  84 NE5       30.15R
JORDAN           N/A     70  61  73 NE5       30.13F
SIDNEY         LGT RAIN  70  60  70 E3        30.14R
GLENDIVE       CLOUDY    70  60  70 SE7       30.15R
MALTA            N/A     70  61  73 NE2         N/A
SCOBEY           N/A     68  54  60 CALM      30.14R
OPHEIM           N/A     61  57  88 CALM      29.95S

FORT PECK REPORTS


CITY           SKY/WX    TMP DP  RH WIND       PRES   REMARKS
FORT PECK        N/A     69  64  84 E9          N/A
THE PINES        N/A     71  63  75 NE5G13      N/A

SOUTHEAST MONTANA


CITY           SKY/WX    TMP DP  RH WIND       PRES   REMARKS
BILLINGS       MOSUNNY   75  57  53 CALM      30.16R
MILES CITY     CLOUDY    71  61  70 NE7       30.12R
BAKER          TSTM      64  62  93 CALM      30.17R
LIVINGSTON     SUNNY     77  44  30 VRB5      30.18F

CENTRAL MONTANA


CITY           SKY/WX    TMP DP  RH WIND       PRES   REMARKS
HAVRE          CLOUDY    69  60  73 NW3       30.16R
LEWISTOWN      SUNNY     69  57  65 CALM      30.20S
GREAT FALLS    SUNNY     72  53  51 N5        30.19F
CUT BANK       MOSUNNY   70  54  56 SE7       30.20S
HELENA         MOSUNNY   74  53  48 CALM      30.18S
BUTTE          MOSUNNY   72  41  32 CALM      30.25F
BOZEMAN        SUNNY     73  46  38 CALM      30.20F

WESTERN MONTANA


CITY           SKY/WX    TMP DP  RH WIND       PRES   REMARKS
MISSOULA       SUNNY     75  53  46 CALM      30.14F
KALISPELL      NOT AVBL

NORTH DAKOTA


CITY           SKY/WX    TMP DP  RH WIND       PRES   REMARKS
WILLISTON      CLOUDY    72  58  61 CALM      30.13S
DICKINSON      PTSUNNY   67  61  81 SE7       30.13S
MINOT          MOSUNNY   76  59  55 NE6       30.14R
BISMARCK       CLOUDY    74  64  71 E7        30.12R

SOUTHERN SASKATCHEWAN


CITY           SKY/WX    TMP DP  RH WIND       PRES   REMARKS
REGINA         PTSUNNY   72  57  60 NW2       30.16F
MOOSE JAW      PTSUNNY   70  52  52 E6        30.17F
ESTEVAN        MOSUNNY   72  59  64 E10       30.15R
SWIFT CURRENT  SUNNY     70  57  64 E10       30.17S




USA.gov is the U.S. government's official web portal to all federal, state and local government web resources and services.